KCMH Airport Diagram

We have created a template for each of the higher traffic airports in the vZID airspace. They include KCMH, KCRW, KCVG, KDAY, KIND, KLEX and KSDF. You wil find usefull information including the airport diagram, weather, and specific airport procedures.

KCMH Weather

[Source: ADDS]
METAR
KCMH 190651Z 00000KT 10SM CLR 02/M01 A3036 RMK AO2 SLP283 T00221006 =
KCMH 190540Z 1906/2006 00000KT P6SM FEW250 FM191800 20011KT P6SM SCT250 FM192300 22011G19KT P6SM VCSH BKN070 FM200100 23011G19KT P6SM -SHRA OVC025 FM200400 24012G21KT P6SM OVC015
TAF
KCMH 190540Z 1906/2006 00000KT P6SM FEW250 FM191800 20011KT P6SM SCT250 FM192300 22011G19KT P6SM VCSH BKN070 FM200100 23011G19KT P6SM -SHRA OVC025 FM200400 24012G21KT P6SM OVC015 =

KCMH Operations

Calm wind runway(s) up to 10 kts: Arriving/Departing 28L/R

Typically, Rw 10R/28L for departures to the West and South and Rw 10L/28R for departures to the North and East.

FBOs: Lane Aviation midfield near Tower, Signature South of Twy B.

Advise ATC if you have updated scenery for KCMH as there are significant changes to the runway/taxiways on the South side of the airport. Default scenery does not match the Airport Diagram available through the usual sources.

JSN Epic template designed by JoomlaShine.com